Klawock, AK

5:39 AM AKDT on April 27, 2017 (GMT -0800)
Klawock

Weather History for PAKW - January, 2013

Change the Weather History Date:

Sunday, January 6, 2013

  Actual Average Record
Temperature  
Mean Temperature 36 °F -  
Max Temperature 39 °F 36 °F 50 °F (2003)
Min Temperature 33 °F 29 °F 21 °F (1998)
Degree Days  
Heating Degree Days 29    
Moisture  
Dew Point 35 °F    
Average Humidity 92    
Maximum Humidity 100    
Minimum Humidity 86    
Precipitation  
Precipitation 0.02 in - - ()
Sea Level Pressure  
Sea Level Pressure 29.68 in    
Wind  
Wind Speed 3 mph (NE)    
Max Wind Speed 6 mph    
Max Gust Speed -    
Visibility 10 miles    
Events Rain    
Averages and records for this station are not official NWS values.
T = Trace of Precipitation, MM = Missing Value Source: NWS Daily Summary

Daily Weather History Graph

Daily Weather History Graph

Search for Another Location

Airport or City:

Trip Planner

Search our weather history database for the weather conditions in past years. The results will help you decide how hot, cold, wet, or windy it might be!

Date:

Astronomy

Jan. 06, 2013 Rise Set
Actual Time 8:18 AM AKST 3:38 PM AKST
Civil Twilight 7:33 AM AKST 4:24 PM AKST
Nautical Twilight 6:45 AM AKST 5:11 PM AKST
Astronomical Twilight 6:00 AM AKST 5:56 PM AKST
Moon 2:17 AM AKST (1/6) 11:30 AM AKST (1/6)
Length of Visible Light 8h 50m
Length of Day
7h 20m
Waning Crescent, 31% of the Moon is Illuminated
Jan 6
Waning Crescent
Jan 11
New
Jan 18
First Quarter
Jan 26
Full
Feb 3
Last Quarter

Hourly Weather History & Observations

Time (AKST) Temp. Windchill Dew Point Humidity Pressure Visibility Wind Dir Wind Speed Gust Speed Precip Events Conditions
12:01 AM 37.4 °F 33.8 °F 35.6 °F 93% 29.68 in 10.0 mi NE 4.6 mph - N/A   Overcast
12:16 AM 37.4 °F - 35.6 °F 93% 29.68 in 10.0 mi Calm Calm - N/A   Overcast
12:27 AM 37.4 °F 33.8 °F 35.6 °F 93% 29.68 in 10.0 mi NNE 4.6 mph - N/A   Overcast
12:53 AM 36.0 °F 33.3 °F 35.1 °F 97% 29.69 in 10.0 mi ENE 3.5 mph - N/A   Overcast
1:20 AM 37.4 °F 34.9 °F 35.6 °F 93% 29.70 in 10.0 mi Variable 3.5 mph - N/A   Overcast
1:30 AM 35.6 °F - 35.6 °F 100% 29.70 in 10.0 mi Calm Calm - N/A   Overcast
1:53 AM 36.0 °F - 35.1 °F 97% 29.71 in 10.0 mi Calm Calm - N/A   Overcast
2:53 AM 37.0 °F - 35.1 °F 93% 29.73 in 10.0 mi Calm Calm - 0.00 in   Overcast
3:00 AM 37.4 °F 34.9 °F 35.6 °F 93% 29.72 in 10.0 mi NE 3.5 mph - N/A   Overcast
3:53 AM 37.0 °F 33.3 °F 35.1 °F 93% 29.73 in 10.0 mi ENE 4.6 mph - N/A   Overcast
4:53 AM 36.0 °F 33.3 °F 35.1 °F 97% 29.72 in 10.0 mi ENE 3.5 mph - N/A   Overcast
5:43 AM 35.6 °F 31.7 °F 33.8 °F 93% 29.72 in 10.0 mi ENE 4.6 mph - N/A   Overcast
5:53 AM 35.1 °F 32.2 °F 33.1 °F 92% 29.72 in 10.0 mi ENE 3.5 mph - N/A   Overcast
6:04 AM 35.6 °F 31.7 °F 33.8 °F 93% 29.71 in 10.0 mi NE 4.6 mph - N/A   Overcast
6:45 AM 35.6 °F - 33.8 °F 93% 29.71 in 10.0 mi Calm Calm - N/A   Scattered Clouds
6:53 AM 35.1 °F - 33.1 °F 92% 29.72 in 10.0 mi Calm Calm - N/A   Partly Cloudy
7:25 AM 35.6 °F 32.8 °F 33.8 °F 93% 29.72 in 10.0 mi NNE 3.5 mph - N/A   Mostly Cloudy
8:00 AM 33.8 °F 30.8 °F 32.0 °F 93% 29.73 in 10.0 mi ENE 3.5 mph - N/A   Mostly Cloudy
8:32 AM 33.8 °F - 33.8 °F 100% 29.73 in 10.0 mi Calm Calm - N/A   Overcast
8:40 AM 33.8 °F 30.8 °F 32.0 °F 93% 29.73 in 10.0 mi NE 3.5 mph - N/A   Overcast
8:53 AM 34.0 °F 29.8 °F 32.0 °F 92% 29.73 in 10.0 mi Variable 4.6 mph - N/A   Mostly Cloudy
9:53 AM 35.1 °F - 33.1 °F 92% 29.76 in 10.0 mi Calm Calm - N/A   Mostly Cloudy
10:06 AM 35.6 °F 30.7 °F 33.8 °F 93% 29.75 in 10.0 mi NNE 5.8 mph - N/A   Mostly Cloudy
10:53 AM 36.0 °F 33.3 °F 33.1 °F 89% 29.73 in 10.0 mi NNE 3.5 mph - N/A   Mostly Cloudy
11:02 AM 35.6 °F - 33.8 °F 93% 29.73 in 10.0 mi Calm Calm - N/A   Mostly Cloudy
11:33 AM 37.4 °F - 35.6 °F 93% 29.73 in 10.0 mi Calm Calm - N/A   Mostly Cloudy
11:53 AM 37.9 °F 35.5 °F 34.0 °F 86% 29.73 in 10.0 mi ENE 3.5 mph - N/A   Overcast
12:42 PM 37.4 °F - 35.6 °F 93% 29.71 in 10.0 mi Calm Calm - N/A   Overcast
12:53 PM 39.0 °F 35.7 °F 35.1 °F 86% 29.72 in 10.0 mi ENE 4.6 mph - N/A   Overcast
1:01 PM 39.2 °F 35.9 °F 35.6 °F 87% 29.71 in 10.0 mi NNE 4.6 mph - N/A   Overcast
1:53 PM 39.0 °F - 35.1 °F 86% 29.70 in 10.0 mi Calm Calm - N/A   Partly Cloudy
2:53 PM 39.0 °F - 35.1 °F 86% 29.69 in 10.0 mi Calm Calm - N/A   Overcast
3:28 PM 39.2 °F - 35.6 °F 87% 29.66 in 10.0 mi Calm Calm - N/A   Overcast
3:53 PM 39.0 °F 35.7 °F 35.1 °F 86% 29.64 in 10.0 mi NNE 4.6 mph - N/A   Mostly Cloudy
4:53 PM 37.9 °F - 35.1 °F 89% 29.62 in 10.0 mi Calm Calm - N/A   Overcast
6:53 PM 39.0 °F - 36.0 °F 89% 29.56 in 10.0 mi Calm Calm - 0.00 in Rain Light Rain
7:53 PM 39.0 °F - 36.0 °F 89% 29.51 in 10.0 mi Calm Calm - 0.02 in Rain Light Rain
8:53 PM 39.9 °F - 36.0 °F 86% 29.48 in 10.0 mi Calm Calm - 0.00 in Rain Light Rain
9:53 PM 39.0 °F - 37.0 °F 93% 29.44 in 10.0 mi Calm Calm - 0.00 in   Overcast
10:53 PM 39.0 °F 35.7 °F 36.0 °F 89% 29.44 in 10.0 mi North 4.6 mph - N/A   Overcast
11:53 PM 39.0 °F 36.8 °F 36.0 °F 89% 29.43 in 10.0 mi ENE 3.5 mph - N/A   Overcast